• In Czech Republic
  • List of Countries
  • For 7 days
  • Water Temperature
  • Satellite Maps
  • Weather Map
  • Weather Widgets
  • user-avatar
    Login

    Hourly Weather Wakefield

    Today, 19 October, Thursday

    Time Temperature Precipitation Wind Pressure Humidity
    00:00 +12°C° 0 mm 2 mps 749 mmHg 95%
    01:00 +12°C° 0 mm 2 mps 749 mmHg 95%
    02:00 +13°C° 0 mm 2 mps 749 mmHg 95%
    03:00 +12°C° 0 mm 3 mps 749 mmHg 95%
    04:00 +12°C° 0 mm 2 mps 748 mmHg 95%
    05:00 +12°C° 0 mm 2 mps 748 mmHg 95%
    06:00 +12°C° 0 mm 2 mps 748 mmHg 95%
    07:00 +12°C° 0.1 mm 2 mps 747 mmHg 94%
    08:00 +12°C° 0.1 mm 3 mps 747 mmHg 93%
    09:00 +12°C° 0.1 mm 3 mps 747 mmHg 92%
    10:00 +12°C° 2.5 mm 3 mps 746 mmHg 93%
    11:00 +12°C° 2.5 mm 3 mps 746 mmHg 94%
    12:00 +14°C° 2.5 mm 2 mps 745 mmHg 95%
    13:00 +13°C° 3.2 mm 3 mps 744 mmHg 94%
    14:00 +14°C° 3.2 mm 3 mps 743 mmHg 93%
    15:00 +14°C° 3.2 mm 4 mps 743 mmHg 92%
    16:00 +14°C° 0.5 mm 4 mps 742 mmHg 92%
    17:00 +14°C° 0.5 mm 4 mps 742 mmHg 91%
    18:00 +14°C° 0.5 mm 5 mps 741 mmHg 90%
    19:00 +14°C° 0.2 mm 5 mps 741 mmHg 89%
    20:00 +13°C° 0.2 mm 5 mps 740 mmHg 88%
    21:00 +13°C° 0.2 mm 6 mps 740 mmHg 87%
    22:00 +13°C° 0.3 mm 6 mps 740 mmHg 87%
    23:00 +13°C° 0.3 mm 6 mps 739 mmHg 87%

    Tomorrow, 20 October, Friday

    Time Temperature Precipitation Wind Pressure Humidity
    00:00 +13°C° 0.3 mm 6 mps 739 mmHg 87%
    01:00 +12°C° 0.1 mm 5 mps 739 mmHg 88%
    02:00 +12°C° 0.1 mm 5 mps 739 mmHg 89%
    03:00 +10°C° 0.1 mm 5 mps 740 mmHg 90%
    04:00 +10°C° 0.3 mm 6 mps 740 mmHg 89%
    05:00 +10°C° 0.3 mm 6 mps 741 mmHg 88%
    06:00 +10°C° 0.3 mm 7 mps 742 mmHg 87%
    07:00 +10°C° 0.2 mm 8 mps 743 mmHg 86%
    08:00 +10°C° 0.2 mm 8 mps 744 mmHg 84%
    09:00 +10°C° 0.2 mm 8 mps 745 mmHg 82%
    10:00 +10°C° 0 mm 8 mps 746 mmHg 80%
    11:00 +10°C° 0 mm 8 mps 746 mmHg 77%
    12:00 +10°C° 0 mm 8 mps 747 mmHg 74%
    13:00 +10°C° 0 mm 7 mps 747 mmHg 72%
    14:00 +10°C° 0 mm 6 mps 747 mmHg 70%
    15:00 +10°C° 0 mm 5 mps 748 mmHg 68%
    16:00 +10°C° 0 mm 5 mps 747 mmHg 71%
    17:00 +11°C° 0 mm 4 mps 747 mmHg 74%
    18:00 +10°C° 0 mm 4 mps 747 mmHg 78%
    19:00 +10°C° 0.5 mm 4 mps 747 mmHg 81%
    20:00 +9°C° 0.5 mm 5 mps 746 mmHg 84%
    21:00 +9°C° 0.5 mm 6 mps 745 mmHg 87%
    22:00 +10°C° 1.8 mm 6 mps 744 mmHg 88%
    23:00 +11°C° 1.8 mm 7 mps 743 mmHg 89%

    Day after tomorrow, 21 October, Saturday

    Time Temperature Precipitation Wind Pressure Humidity
    00:00 +11°C° 1.8 mm 7 mps 742 mmHg 90%
    01:00 +11°C° 0.2 mm 7 mps 742 mmHg 87%
    02:00 +11°C° 0.2 mm 7 mps 741 mmHg 85%
    03:00 +11°C° 0.2 mm 6 mps 741 mmHg 83%
    04:00 +10°C° 0 mm 7 mps 740 mmHg 82%
    05:00 +10°C° 0 mm 7 mps 740 mmHg 81%
    06:00 +10°C° 0 mm 8 mps 740 mmHg 79%
    07:00 +10°C° 0 mm 8 mps 739 mmHg 77%
    08:00 +10°C° 0 mm 9 mps 739 mmHg 75%
    09:00 +9°C° 0 mm 10 mps 739 mmHg 73%
    10:00 +11°C° 0.1 mm 10 mps 738 mmHg 72%
    11:00 +11°C° 0.1 mm 10 mps 737 mmHg 71%
    12:00 +12°C° 0.1 mm 10 mps 737 mmHg 70%
    13:00 +11°C° 0.5 mm 10 mps 736 mmHg 74%
    14:00 +11°C° 0.5 mm 10 mps 736 mmHg 77%
    15:00 +11°C° 0.5 mm 10 mps 735 mmHg 81%
    16:00 +11°C° 1 mm 9 mps 736 mmHg 81%
    17:00 +11°C° 1 mm 9 mps 736 mmHg 81%
    18:00 +11°C° 1 mm 9 mps 737 mmHg 82%
    19:00 +11°C° 0.3 mm 9 mps 738 mmHg 82%
    20:00 +10°C° 0.3 mm 8 mps 738 mmHg 82%
    21:00 +10°C° 0.3 mm 8 mps 739 mmHg 83%
    22:00 +10°C° 0.3 mm 9 mps 740 mmHg 82%
    23:00 +10°C° 0.3 mm 9 mps 741 mmHg 81%

    22 October, Sunday

    Time Temperature Precipitation Wind Pressure Humidity
    00:00 +9°C° 0.3 mm 10 mps 742 mmHg 80%
    01:00 +8°C° 0.1 mm 10 mps 743 mmHg 80%
    02:00 +8°C° 0.1 mm 10 mps 743 mmHg 79%
    03:00 +7°C° 0.1 mm 10 mps 744 mmHg 78%
    04:00 +7°C° 0.3 mm 10 mps 745 mmHg 80%
    05:00 +8°C° 0.3 mm 9 mps 745 mmHg 81%
    06:00 +8°C° 0.3 mm 9 mps 746 mmHg 82%
    07:00 +8°C° 0.4 mm 10 mps 746 mmHg 81%
    08:00 +8°C° 0.4 mm 10 mps 747 mmHg 79%
    09:00 +8°C° 0.4 mm 10 mps 748 mmHg 77%
    10:00 +8°C° 0.1 mm 10 mps 749 mmHg 76%
    11:00 +8°C° 0.1 mm 10 mps 750 mmHg 75%
    12:00 +8°C° 0.1 mm 10 mps 751 mmHg 74%
    13:00 +9°C° 0.1 mm 10 mps 751 mmHg 73%
    14:00 +9°C° 0.1 mm 10 mps 751 mmHg 73%
    15:00 +9°C° 0.1 mm 10 mps 752 mmHg 73%
    16:00 +10°C° 0 mm 9 mps 752 mmHg 74%
    17:00 +10°C° 0 mm 8 mps 753 mmHg 75%
    18:00 +10°C° 0 mm 7 mps 753 mmHg 76%
    19:00 +9°C° 0 mm 7 mps 754 mmHg 77%
    20:00 +9°C° 0 mm 6 mps 754 mmHg 79%
    21:00 +9°C° 0 mm 5 mps 755 mmHg 81%
    22:00 +9°C° 0 mm 5 mps 755 mmHg 82%
    23:00 +9°C° 0 mm 5 mps 755 mmHg 83%

    23 October, Monday

    Time Temperature Precipitation Wind Pressure Humidity
    00:00 +10°C° 0 mm 4 mps 755 mmHg 84%
    01:00 +10°C° 0.4 mm 4 mps 755 mmHg 86%
    02:00 +10°C° 0.4 mm 4 mps 755 mmHg 89%
    03:00 +11°C° 0.4 mm 4 mps 755 mmHg 91%
    04:00 +11°C° 0.4 mm 4 mps 754 mmHg 91%
    05:00 +11°C° 0.4 mm 4 mps 754 mmHg 92%
    06:00 +12°C° 0.4 mm 4 mps 754 mmHg 92%
    07:00 +13°C° 0 mm 5 mps 754 mmHg 91%
    08:00 +13°C° 0 mm 5 mps 754 mmHg 90%
    09:00 +14°C° 0 mm 5 mps 754 mmHg 89%
    10:00 +14°C° 0.2 mm 5 mps 754 mmHg 89%
    11:00 +15°C° 0.2 mm 5 mps 754 mmHg 88%
    12:00 +15°C° 0.2 mm 6 mps 754 mmHg 88%
    13:00 +15°C° 0.1 mm 6 mps 754 mmHg 88%
    14:00 +16°C° 0.1 mm 5 mps 754 mmHg 87%
    15:00 +16°C° 0.1 mm 5 mps 754 mmHg 87%
    16:00 +16°C° 0 mm 5 mps 754 mmHg 87%
    17:00 +15°C° 0 mm 5 mps 755 mmHg 88%
    18:00 +15°C° 0 mm 5 mps 755 mmHg 88%
    19:00 +15°C° 0 mm 6 mps 755 mmHg 88%
    20:00 +15°C° 0 mm 6 mps 755 mmHg 88%
    21:00 +15°C° 0 mm 6 mps 756 mmHg 88%
    22:00 +14°C° 0 mm 6 mps 756 mmHg 88%
    23:00 +14°C° 0 mm 6 mps 756 mmHg 88%

    24 October, Tuesday

    Time Temperature Precipitation Wind Pressure Humidity
    00:00 +14°C° 0 mm 6 mps 756 mmHg 88%
    01:00 +14°C° 0 mm 6 mps 756 mmHg 89%
    02:00 +14°C° 0 mm 6 mps 756 mmHg 89%
    03:00 +13°C° 0 mm 6 mps 756 mmHg 89%
    04:00 +13°C° 0 mm 6 mps 756 mmHg 89%
    05:00 +13°C° 0 mm 6 mps 756 mmHg 89%
    06:00 +13°C° 0 mm 5 mps 756 mmHg 89%
    07:00 +13°C° 0.1 mm 5 mps 757 mmHg 89%
    08:00 +14°C° 0.1 mm 5 mps 757 mmHg 88%
    09:00 +14°C° 0.1 mm 5 mps 757 mmHg 87%
    10:00 +14°C° 0 mm 6 mps 757 mmHg 85%
    11:00 +15°C° 0 mm 6 mps 757 mmHg 83%
    12:00 +16°C° 0 mm 6 mps 757 mmHg 81%
    13:00 +16°C° 0 mm 6 mps 757 mmHg 82%
    14:00 +16°C° 0 mm 5 mps 757 mmHg 82%
    15:00 +16°C° 0 mm 5 mps 757 mmHg 82%
    16:00 +15°C° 0.2 mm 5 mps 757 mmHg 83%
    17:00 +15°C° 0.2 mm 5 mps 757 mmHg 85%
    18:00 +15°C° 0.2 mm 5 mps 758 mmHg 86%
    19:00 +15°C° 0 mm 5 mps 758 mmHg 86%
    20:00 +14°C° 0 mm 5 mps 758 mmHg 87%
    21:00 +14°C° 0 mm 4 mps 758 mmHg 87%
    22:00 +14°C° 0.2 mm 4 mps 758 mmHg 89%
    23:00 +14°C° 0.2 mm 4 mps 759 mmHg 90%
    Show more